Погода в Свободном

Украина / Донецкая область     47°21′39″N   38°03′56″E
темп.,
°C
ветер,
м/с
пор.,
м/с
влажн.,
%
обл.,
%
осадки,
мм/ч
давл.,
гПа
погр.,
м
16 сентября, чт
чт1600:00+16ссв473890 0.0 1016117
03:00+14ссв364157 0.0 1015105
06:00+13ссв34425 0.0 101666
09:00+18ссв452945 0.0 1016472
12:00+22ссв45241 0.0 10161563
15:00+23ссв44235 0.0 10151902
18:00+21с462762 0.0 1016166
21:00+17ссв34315 0.0 101756
17 сентября, пт
пт1700:00+15ссв35370 0.0 101769
03:00+13св34421 0.0 101854
06:00+12св334552 0.0 101734
09:00+18всв33365 0.0 1017363
12:00+22юв32295 0.0 10161504
15:00+22ю42275 0.0 10151601
18:00+20ю33325 0.0 101567
21:00+17ююз223471 0.0 101512
18 сентября, сб
сб1800:00+15сз113896 0.0 101512
03:00+15в114092 0.0 101411
06:00+14вюв226556 0.0 101524
09:00+19юв45585 0.0 1015519
12:00+22ююв66475 0.0 1014848
15:00+23ю463873 0.0 10131269
18:00+21ююз2347100 0.0 101367
21:00+19зсз0048100 0.0 101311
19 сентября, вс
вс1900:00+20вюв2248100 0.0 101235
03:00+20в2346100 0.0 101182
06:00+18юз227295 0.2 101143
09:00+19ююз487280 0.2 1012457
12:00+21ююз6761100 0.0 10121056
15:00+21ю576283 0.0 1011852
18:00+19ююз387887 1.1 1010443
21:00+19ю51186100 5.2 1010564
20 сентября, пн
пн2000:00+18ююз5108546 2.5 1009343
03:00+17зюз22850 3.9 100922
06:00+16юз34850 0.0 100972
09:00+19зюз61065100 0.0 1010526
12:00+23зюз6843100 0.0 10101439
15:00+22ююз894997 0.0 1010879
18:00+19юз5961100 0.0 1010531
21:00+18ю3668100 0.0 1010440